Total_Precipitation_Accumulation
1.62 1.64 1.62 1.58 1.53 1.53 1.57 1.51 1.37 1.26 1.15 1.05 0.96 0.95 0.94 0.88 0.86 0.93 0.96 1.01 1.12 1.17 1.12 1.14 1.18 1.28 1.40 1.45 1.58 1.70 1.90 2.10 2.10 1.74 1.47 1.37 1.46 1.55 1.62 1.58 1.52 1.46 1.36
1.43 1.45 1.49 1.34 1.26 1.27 1.27 1.24 1.16 1.13 1.10 1.04 0.99 0.96 0.89 0.82 0.82 0.84 0.83 0.83 0.91 0.97 1.00 1.05 1.01 1.06 1.20 1.29 1.42 1.51 1.66 1.82 1.95 1.86 1.59 1.49 1.48 1.55 1.67 1.68 1.48 1.34 1.26
1.15 1.25 1.33 1.22 1.14 1.14 1.10 1.07 1.08 1.07 1.05 1.01 0.97 0.90 0.83 0.80 0.82 0.82 0.78 0.78 0.77 0.79 0.88 0.97 1.00 1.11 1.19 1.28 1.41 1.45 1.53 1.59 1.80 1.79 1.61 1.59 1.60 1.60 1.75 1.69 1.45 1.42 1.13
1.03 1.04 1.10 1.12 1.09 1.05 1.04 1.01 0.95 0.92 0.90 0.85 0.80 0.78 0.77 0.74 0.69 0.67 0.68 0.70 0.75 0.76 0.79 0.83 0.91 1.05 1.17 1.32 1.37 1.45 1.57 1.68 1.78 1.85 1.77 1.75 1.75 1.76 1.84 1.86 1.68 1.49 1.25
1.05 1.04 1.03 1.03 0.97 0.97 0.99 0.96 0.85 0.81 0.74 0.71 0.69 0.68 0.67 0.65 0.60 0.60 0.65 0.67 0.78 0.84 0.86 0.84 0.82 0.90 1.05 1.14 1.19 1.39 1.65 1.82 1.84 1.89 1.87 1.86 1.83 1.90 1.83 1.75 1.72 1.57 1.32
1.09 1.11 1.08 1.06 1.00 0.95 0.94 0.93 0.85 0.83 0.78 0.69 0.71 0.68 0.62 0.52 0.54 0.56 0.59 0.66 0.76 0.83 0.91 0.89 0.79 0.77 0.81 0.86 0.93 1.07 1.31 1.59 1.78 1.86 1.84 1.81 1.78 1.82 1.81 1.72 1.74 1.74 1.56
1.07 1.04 1.07 1.09 1.00 0.91 0.86 0.93 0.91 0.89 0.80 0.74 0.73 0.71 0.64 0.54 0.50 0.48 0.50 0.58 0.73 0.83 0.92 0.93 0.78 0.67 0.80 0.90 0.92 0.92 1.01 1.20 1.52 1.75 1.80 1.67 1.76 1.84 1.91 1.89 1.80 1.79 1.70
1.02 0.97 0.97 0.98 0.99 0.91 0.88 0.90 0.89 0.90 0.89 0.80 0.73 0.73 0.73 0.54 0.49 0.48 0.50 0.61 0.74 0.79 0.81 0.86 0.91 0.92 0.83 0.86 0.91 1.05 1.21 1.32 1.39 1.40 1.57 1.61 1.63 1.66 1.67 1.71 1.75 1.76 1.61
0.91 0.91 0.85 0.82 0.81 0.80 0.78 0.80 0.88 0.90 0.89 0.78 0.72 0.77 0.75 0.58 0.49 0.48 0.50 0.62 0.72 0.73 0.67 0.67 0.71 0.76 0.73 0.80 0.96 1.20 1.41 1.60 1.46 1.40 1.47 1.62 1.61 1.46 1.34 1.48 1.75 1.85 1.65
0.77 0.71 0.70 0.72 0.72 0.74 0.76 0.79 0.77 0.83 0.85 0.72 0.65 0.67 0.63 0.53 0.46 0.44 0.49 0.57 0.68 0.69 0.72 0.70 0.72 0.71 0.72 0.87 1.06 1.37 1.58 1.70 1.55 1.46 1.57 1.69 1.62 1.51 1.45 1.54 1.76 1.78 1.66
0.59 0.55 0.59 0.59 0.61 0.61 0.70 0.73 0.71 0.70 0.75 0.73 0.65 0.61 0.54 0.44 0.40 0.42 0.44 0.47 0.55 0.65 0.69 0.77 0.81 0.81 0.76 0.87 1.07 1.31 1.53 1.61 1.56 1.52 1.54 1.59 1.64 1.65 1.54 1.51 1.57 1.57 1.60
0.51 0.50 0.51 0.50 0.44 0.45 0.61 0.64 0.63 0.70 0.68 0.67 0.71 0.67 0.54 0.44 0.34 0.30 0.32 0.36 0.43 0.63 0.75 0.78 0.80 0.83 0.83 0.95 1.08 1.31 1.54 1.68 1.60 1.50 1.42 1.39 1.39 1.43 1.41 1.29 1.25 1.25 1.30
0.53 0.56 0.50 0.44 0.43 0.41 0.48 0.51 0.53 0.61 0.58 0.55 0.58 0.56 0.48 0.40 0.30 0.20 0.20 0.26 0.36 0.50 0.66 0.81 0.82 0.78 0.91 1.18 1.37 1.52 1.68 1.77 1.65 1.45 1.37 1.29 1.22 1.19 1.16 1.17 1.14 1.10 1.04
0.55 0.56 0.52 0.49 0.46 0.39 0.37 0.35 0.36 0.40 0.42 0.48 0.49 0.47 0.44 0.40 0.28 0.22 0.25 0.27 0.35 0.44 0.57 0.75 0.90 0.97 1.12 1.39 1.62 1.76 1.84 1.78 1.57 1.38 1.27 1.21 1.12 1.10 1.12 1.10 1.12 1.11 1.12
0.52 0.48 0.45 0.42 0.41 0.38 0.30 0.25 0.24 0.25 0.27 0.33 0.38 0.39 0.39 0.33 0.24 0.25 0.27 0.28 0.33 0.40 0.50 0.71 0.92 1.05 1.25 1.46 1.59 1.61 1.58 1.52 1.44 1.29 1.18 1.13 1.11 1.10 1.10 1.08 1.10 1.05 1.07
0.46 0.45 0.40 0.36 0.34 0.30 0.28 0.26 0.21 0.20 0.21 0.22 0.24 0.25 0.26 0.26 0.22 0.21 0.24 0.29 0.36 0.44 0.53 0.78 0.98 1.10 1.26 1.38 1.48 1.46 1.37 1.30 1.24 1.20 1.15 1.08 1.06 1.06 1.09 1.05 1.00 1.00 1.04
0.36 0.38 0.35 0.29 0.27 0.28 0.29 0.35 0.33 0.25 0.21 0.20 0.19 0.21 0.22 0.23 0.22 0.22 0.23 0.30 0.35 0.44 0.59 0.81 1.00 1.15 1.25 1.30 1.32 1.30 1.25 1.19 1.10 1.06 1.04 1.00 0.97 0.97 0.97 0.94 0.89 0.89 0.90
0.29 0.27 0.25 0.25 0.25 0.26 0.24 0.22 0.28 0.34 0.34 0.29 0.22 0.20 0.20 0.21 0.24 0.26 0.28 0.34 0.44 0.51 0.67 0.84 0.98 1.04 1.12 1.18 1.18 1.18 1.14 1.07 1.01 0.99 1.03 1.00 0.92 0.86 0.82 0.81 0.81 0.77 0.75
0.24 0.24 0.21 0.20 0.20 0.20 0.16 0.14 0.17 0.22 0.28 0.30 0.27 0.23 0.22 0.22 0.25 0.30 0.35 0.43 0.54 0.62 0.71 0.81 0.87 0.91 0.97 1.01 1.03 1.01 1.00 0.97 0.92 0.89 0.89 0.90 0.88 0.80 0.73 0.67 0.65 0.58 0.57
0.22 0.22 0.20 0.17 0.15 0.15 0.14 0.13 0.14 0.16 0.21 0.24 0.27 0.25 0.24 0.32 0.40 0.38 0.37 0.40 0.49 0.59 0.66 0.74 0.75 0.74 0.77 0.81 0.80 0.75 0.77 0.78 0.77 0.79 0.78 0.78 0.79 0.74 0.67 0.59 0.54 0.53 0.55
0.20 0.19 0.18 0.16 0.14 0.13 0.13 0.15 0.15 0.15 0.19 0.23 0.21 0.19 0.27 0.36 0.45 0.42 0.41 0.43 0.49 0.54 0.56 0.60 0.63 0.64 0.61 0.61 0.64 0.64 0.65 0.71 0.73 0.73 0.72 0.70 0.68 0.63 0.56 0.51 0.49 0.47 0.46
0.20 0.19 0.16 0.14 0.14 0.13 0.12 0.12 0.13 0.13 0.15 0.19 0.18 0.17 0.27 0.33 0.41 0.43 0.44 0.48 0.51 0.54 0.55 0.54 0.52 0.54 0.57 0.58 0.60 0.63 0.65 0.66 0.68 0.69 0.68 0.64 0.62 0.58 0.53 0.47 0.45 0.46 0.46
0.23 0.21 0.18 0.18 0.17 0.14 0.12 0.11 0.12 0.12 0.12 0.14 0.16 0.19 0.24 0.33 0.42 0.48 0.52 0.54 0.54 0.52 0.48 0.47 0.50 0.52 0.51 0.51 0.50 0.53 0.55 0.56 0.62 0.67 0.68 0.61 0.55 0.50 0.47 0.45 0.44 0.46 0.46
0.18 0.16 0.15 0.17 0.19 0.17 0.15 0.14 0.14 0.13 0.13 0.15 0.18 0.20 0.24 0.31 0.38 0.47 0.55 0.59 0.62 0.61 0.54 0.50 0.51 0.50 0.47 0.45 0.46 0.46 0.46 0.48 0.49 0.53 0.54 0.50 0.44 0.41 0.40 0.41 0.39 0.40 0.41
0.18 0.16 0.15 0.17 0.17 0.14 0.13 0.14 0.15 0.17 0.18 0.19 0.20 0.21 0.23 0.26 0.32 0.40 0.47 0.53 0.58 0.62 0.63 0.62 0.60 0.54 0.47 0.42 0.39 0.38 0.45 0.48 0.43 0.42 0.47 0.44 0.36 0.35 0.37 0.37 0.36 0.36 0.36
0.17 0.16 0.15 0.15 0.16 0.15 0.14 0.13 0.12 0.12 0.14 0.18 0.19 0.19 0.20 0.23 0.28 0.32 0.35 0.39 0.45 0.52 0.58 0.64 0.65 0.56 0.45 0.38 0.38 0.39 0.38 0.31 0.27 0.29 0.39 0.40 0.35 0.33 0.31 0.32 0.31 0.32 0.34